BEIDOU-3 G3

Last updated on Tue Sep 16 2025 00:02:50 GMT+0000 (Coordinated Universal Time)

1 45807U 20040A 25258.60650271 -.00000370 00000+0 00000+0 0 9998 2 45807 1.7734 65.5805 0004220 329.6371 288.5150 1.00272958 19313
UTC large
Height (km)
Speed (km/s)
/
Latitude / Longitude
Inclination (degrees)
Orbital Period (minutes)
Azimuth
Elevation
Range (km)
Doppler Factor

Next 0 passes for location: London (51.5072 / 0.1276)

Sorry there are no passes over London.